Location: Aufkirchen
(47.9603°N, 11.3653°E)
Time: 16:42:17
(UTC+02:00)

Tiangong - Visible Passes

Search period start: 20 September 2021 00:00
Search period end: 30 September 2021 00:00
Orbit: 380 x 386 km, 41.5° (Epoch: 18 September)

Date Brightness Start Highest point End Pass type
(mag) Time Alt. Az. Time Alt. Az. Time Alt. Az.
27 Sep 3.4 06:32:45 10° SSW 06:34:51 17° SSE 06:36:59 10° ESE visible
28 Sep 3.6 05:33:10 11° S 05:34:12 12° SSE 05:35:37 10° SE visible
29 Sep 3.0 06:07:20 11° SW 06:09:31 20° SSE 06:11:56 10° ESE visible
